Location: Grisols
(45.0093°N, 3.1167°E)
Time: 04:20:53
(UTC+00:00)

Cosmos 1939 Rocket - Pass Details

Date: 21 October 2019
Orbit: 533 x 584 km, 97.4° (Epoch: 19 November)

Event Time Altitude Azimuth Distance (km) Brightness Sun altitude
Exits shadow 17:48:50 - 131° (SE) 2,245 5.5 -10.5°
Reaches altitude 10° 17:49:56 10° 124° (SE) 1,849 5.0 -10.7°
Maximum altitude 17:53:16 26° 68° (ENE) 1,141 3.9 -11.3°
Drops below altitude 10° 17:56:40 10° 11° (NNE) 1,886 5.4 -11.9°
Sets 17:59:05 0° 359° (N) 2,798 6.4 -12.3°
